Regional Weather Roundup
Issued by NWS Charleston, WV

Home | Current Version | Previous Version | Graphics & Text | Print | Product List | Glossary On
Versions: 1 2 3 4 5 6 7 8 9 10 11 12 13 14 15 16 17 18 19 20 21 22 23 24 25 26
000
ASUS41 KRLX 131510
RWRRLX
West Virginia Regional Weather Roundup
National Weather Service Charleston WV
1000 AM EST WED DEC 13 2017

Note: "fair" indicates few or no clouds below 12,000 feet with no
significant weather and/or obstructions to visibility.

WVZ003-131600-
Northern Panhandle of West Virginia

CITY           SKY/WX    TMP DP  RH WIND       PRES   REMARKS
WHEELING       CLOUDY    19  11  70 W13       29.85R WCI   6
$$

WVZ009-131600-
Northwest West Virginia

CITY           SKY/WX    TMP DP  RH WIND       PRES   REMARKS
PARKERSBURG    PTSUNNY   21  10  62 SW8       29.94F
$$

WVZ006-131600-
Western West Virginia

CITY           SKY/WX    TMP DP  RH WIND       PRES   REMARKS
HUNTINGTON     CLOUDY    23  10  57 S7        29.94F
$$

WVZ015-131600-
West Central West Virginia

CITY           SKY/WX    TMP DP  RH WIND       PRES   REMARKS
CHARLESTON     MOSUNNY   24   7  48 SW9       29.94F
$$

WVZ022-031-131600-
North Central West Virginia

CITY           SKY/WX    TMP DP  RH WIND       PRES   REMARKS
CLARKSBURG     CLOUDY    22   8  55 W10       29.87F
MORGANTOWN     CLOUDY    20  11  68 VRB7      29.86F
$$

WVZ025-035-042-045-131600-
Southern West Virginia

CITY           SKY/WX    TMP DP  RH WIND       PRES   REMARKS
BECKLEY        CLOUDY    17   3  54 W8        29.84F WCI   7
LOGAN          CLOUDY    23   9  54 CALM      29.91S
BLUEFIELD      SUNNY     16   1  51 W10G22    29.84R WCI   4
LEWISBURG      CLOUDY    19   5  54 CALM      29.83F
$$

WVZ047-131600-
Northern Mountains of West Virginia

CITY           SKY/WX    TMP DP  RH WIND       PRES   REMARKS
ELKINS         CLOUDY    16   5  62 SW6       29.83F WCI   7
$$

WVZ052-131600-
Eastern Panhandle of West Virginia

CITY           SKY/WX    TMP DP  RH WIND       PRES   REMARKS
MARTINSBURG    SUNNY     23   0  36 NW20G29   29.82F WCI   8
PETERSBURG     MOSUNNY   22   7  52 CALM      29.84S
$$




USA.gov is the U.S. government's official web portal to all federal, state and local government web resources and services.